DW8673 Jerrabomberra AU current weather conditions

sailwx.info

Wind from 021 at 2 knots gusting 5

Air temperature 35.0° C
Dewpoint 6.3° C

Last reported at 2014-Dec-22 01:43 UTC.
Time now 2014-Dec-22 02:47 UTC

Location: S 35°23' E 149°12'.
View on Google Maps.

See reports from other nearby stations

  
Tides and Currents Weather Stations Pressure Air Temp Water Temp Dewpoint Dewpoint Depression Visibility Wind Speed Wind Dir Waves Ship Positions
date/time (UTC)wind fromknots sea level pressurealtimeterstation pressurevisibilityair tempwater tempwave heightnotes
2014-Dec-22 01:43 021 2 gusting 5 35.0
2014-Dec-22 01:33 345 2 gusting 6 34.4
2014-Dec-22 01:13 348 3 gusting 6 33.9
2014-Dec-22 01:03 299 2 gusting 6 34.4
2014-Dec-22 00:43 075 2 gusting 6 33.3
2014-Dec-22 00:33 32.8
2014-Dec-22 00:13 281 1 gusting 5 32.2
2014-Dec-22 00:03 039 1 gusting 6 32.2
2014-Dec-21 23:43 016 2 gusting 6 31.1
2014-Dec-21 23:33 127 1 gusting 5 31.1
2014-Dec-21 23:13 240 2 gusting 4 30.6
2014-Dec-21 23:03 339 2 gusting 4 30.0
2014-Dec-21 22:43 312 1 gusting 2 28.9
2014-Dec-21 22:33 327 1 gusting 2 28.3
2014-Dec-21 22:13 355 1 gusting 2 27.2
2014-Dec-21 22:03 083 0 gusting 2 27.2
2014-Dec-21 21:43 278 1 gusting 2 26.1
2014-Dec-21 21:33 244 0 gusting 1 25.6
2014-Dec-21 21:13 280 1 gusting 1 23.3
2014-Dec-21 21:03 349 0 gusting 2 23.9
2014-Dec-21 20:43 238 0 gusting 0 22.2
2014-Dec-21 20:33 315 21.1
2014-Dec-21 20:13 248 20.0
2014-Dec-21 20:03 292 18.9
2014-Dec-21 19:43 248 18.3
2014-Dec-21 19:33 248 17.2
2014-Dec-21 19:13 202 16.1
2014-Dec-21 19:03 135 16.1
2014-Dec-21 18:43 225 16.1
2014-Dec-21 18:33 022 16.1
2014-Dec-21 18:13 180 16.1
2014-Dec-21 17:43 180 16.7
2014-Dec-21 17:33 149 16.7
2014-Dec-21 17:13 112 16.7
2014-Dec-21 17:03 007 17.2
2014-Dec-21 16:43 225 17.2
2014-Dec-21 16:33 248 17.2
2014-Dec-21 16:13 270 17.8
2014-Dec-21 16:03 17.8
2014-Dec-21 15:43 252 18.3
2014-Dec-21 15:33 209 18.3
2014-Dec-21 15:13 112 18.9
2014-Dec-21 15:03 270 18.9
2014-Dec-21 14:43 112 19.4
2014-Dec-21 14:33 112 19.4
2014-Dec-21 14:13 202 20.0
2014-Dec-21 14:03 225 20.6
2014-Dec-21 13:43 270 21.1
2014-Dec-21 13:33 273 21.1
2014-Dec-21 13:13 083 0 gusting 4 21.7
2014-Dec-21 13:03 065 21.7
2014-Dec-21 12:43 115 0 gusting 2 22.2
2014-Dec-21 12:33 134 1 gusting 5 22.2
2014-Dec-21 12:13 035 1 gusting 5 22.8
2014-Dec-21 12:03 071 1 gusting 4 22.8
2014-Dec-21 11:43 105 1 gusting 5 22.8
2014-Dec-21 11:33 070 2 gusting 5 22.8
2014-Dec-21 11:13 092 1 gusting 4 22.8
2014-Dec-21 11:03 074 1 gusting 6 22.8
2014-Dec-21 10:43 112 1 gusting 4 22.2
2014-Dec-21 10:33 090 21.1
2014-Dec-21 10:13 219 22.2
2014-Dec-21 10:03 180 22.8
2014-Dec-21 09:43 090 23.3
2014-Dec-21 09:33 090 24.4
2014-Dec-21 09:13 270 26.1
2014-Dec-21 09:03 270 27.8
2014-Dec-21 08:43 270 31.1
2014-Dec-21 08:33 289 0 gusting 6 31.7
2014-Dec-21 08:13 271 1 gusting 4 32.2
2014-Dec-21 08:03 303 1 gusting 5 32.8
2014-Dec-21 07:43 274 3 gusting 6 32.8
2014-Dec-21 07:33 250 1 gusting 6 33.3
2014-Dec-21 07:13 248 1 gusting 6 33.9
2014-Dec-21 07:03 249 4 gusting 6 33.9
2014-Dec-21 06:43 303 2 gusting 6 33.9
2014-Dec-21 06:33 307 4 gusting 5 34.4
2014-Dec-21 06:13 276 2 gusting 6 34.4
2014-Dec-21 06:03 283 1 gusting 6 33.9
2014-Dec-21 05:43 330 2 gusting 6 33.9
2014-Dec-21 05:33 302 1 gusting 4 33.3
2014-Dec-21 05:13 311 1 gusting 6 35.0
2014-Dec-21 04:43 274 1 gusting 4 35.0
2014-Dec-21 04:33 341 2 gusting 6 33.9
2014-Dec-21 04:13 356 3 gusting 6 33.3
2014-Dec-21 03:43 267 3 gusting 6 33.9
2014-Dec-21 03:33 248 2 gusting 6 33.3
2014-Dec-21 03:13 016 4 gusting 6 32.8
2014-Dec-21 03:03 226 1 gusting 6 33.3
2014-Dec-21 02:43 319 2 gusting 7 32.2
2014-Dec-21 02:33 337 2 gusting 6 32.8
2014-Dec-21 02:13 339 1 gusting 5 31.7
2014-Dec-21 02:03 299 2 gusting 6 31.7
2014-Dec-21 01:43 310 3 gusting 5 31.7
2014-Dec-21 01:33 329 3 gusting 6 31.7
2014-Dec-21 01:13 253 1 gusting 6 32.2
2014-Dec-21 01:03 303 1 gusting 5 31.1
2014-Dec-21 00:43 315 2 gusting 4 30.6
2014-Dec-21 00:33 321 1 gusting 5 30.0
2014-Dec-21 00:13 043 1 gusting 4 28.9
2014-Dec-21 00:03 264 1 gusting 5 28.9
2014-Dec-20 23:43 306 2 gusting 5 27.2
2014-Dec-20 23:33 341 0 gusting 5 27.2
2014-Dec-20 23:13 042 1 gusting 2 26.1
2014-Dec-20 23:03 259 1 gusting 4 25.6
2014-Dec-20 22:43 264 1 gusting 4 24.4
2014-Dec-20 22:33 238 1 gusting 2 24.4
2014-Dec-20 22:13 285 0 gusting 1 23.3
2014-Dec-20 22:03 268 1 gusting 2 22.8
2014-Dec-20 21:43 142 1 gusting 4 21.7
2014-Dec-20 21:33 259 0 gusting 4 21.1
2014-Dec-20 21:13 344 0 gusting 1 20.6
2014-Dec-20 21:03 008 1 gusting 4 20.0
2014-Dec-20 20:43 109 0 gusting 1 20.0
2014-Dec-20 20:33 098 0 gusting 1 19.4
2014-Dec-20 20:13 123 0 gusting 1 18.3
2014-Dec-20 20:03 060 0 gusting 1 17.2
2014-Dec-20 19:43 090 0 gusting 0 15.6
2014-Dec-20 19:33 096 15.6
2014-Dec-20 19:13 093 0 gusting 1 15.6
2014-Dec-20 19:03 086 15.6
2014-Dec-20 18:43 112 15.6
2014-Dec-20 18:33 068 15.6
2014-Dec-20 18:13 068 15.6
2014-Dec-20 18:03 107 0 gusting 1 16.1
2014-Dec-20 17:43 090 0 gusting 2 16.1
2014-Dec-20 17:33 122 0 gusting 2 16.1
2014-Dec-20 17:13 117 0 gusting 1 16.1
2014-Dec-20 17:03 100 0 gusting 1 16.1
2014-Dec-20 16:43 071 1 gusting 1 16.1
2014-Dec-20 16:33 094 0 gusting 1 16.1
2014-Dec-20 16:13 097 0 gusting 1 16.1
2014-Dec-20 16:03 112 0 gusting 1 16.1
2014-Dec-20 15:43 112 1 gusting 1 16.1
2014-Dec-20 15:33 105 0 gusting 2 16.1
2014-Dec-20 15:13 090 0 gusting 2 16.7
2014-Dec-20 15:03 065 1 gusting 1 16.7
2014-Dec-20 14:43 053 1 gusting 2 16.7
2014-Dec-20 14:33 129 0 gusting 1 16.7
2014-Dec-20 14:13 094 16.7
2014-Dec-20 14:03 111 0 gusting 1 16.7
2014-Dec-20 13:43 068 0 gusting 1 16.7
2014-Dec-20 13:33 074 16.1
2014-Dec-20 13:13 315 0 gusting 1 16.1
2014-Dec-20 13:03 113 16.7
2014-Dec-20 12:43 119 1 gusting 2 17.2
2014-Dec-20 12:33 152 0 gusting 1 17.2
2014-Dec-20 12:13 077 0 gusting 1 17.8
2014-Dec-20 12:03 063 0 gusting 2 18.3
2014-Dec-20 11:43 070 0 gusting 1 18.3
2014-Dec-20 11:33 081 0 gusting 2 18.3
2014-Dec-20 11:13 084 1 gusting 5 18.3
2014-Dec-20 11:03 098 1 gusting 5 18.3
2014-Dec-20 10:43 098 0 gusting 4 18.3
2014-Dec-20 10:33 103 1 gusting 6 18.9
2014-Dec-20 10:13 085 1 gusting 6 19.4
2014-Dec-20 10:03 110 1 gusting 5 19.4
2014-Dec-20 09:43 085 1 gusting 6 20.6
2014-Dec-20 09:33 117 2 gusting 6 20.6
2014-Dec-20 09:13 091 1 gusting 6 21.7
2014-Dec-20 09:03 078 4 gusting 5 22.2
2014-Dec-20 08:43 073 3 gusting 6 22.8
2014-Dec-20 08:33 093 2 gusting 5 22.8
2014-Dec-20 08:13 088 2 gusting 5 23.9
2014-Dec-20 08:03 106 2 gusting 8 24.4
2014-Dec-20 07:43 086 2 gusting 6 27.8
2014-Dec-20 07:33 113 1 gusting 6 28.3
2014-Dec-20 07:13 263 1 gusting 5 28.9
2014-Dec-20 07:03 277 1 gusting 4 29.4
2014-Dec-20 06:43 326 1 gusting 5 31.1
2014-Dec-20 06:33 269 1 gusting 4 30.6
2014-Dec-20 06:13 268 2 gusting 5 31.1
2014-Dec-20 06:03 323 1 gusting 5 30.6
2014-Dec-20 05:43 258 2 gusting 4 28.3
2014-Dec-20 05:33 308 1 gusting 4 28.3
2014-Dec-20 05:13 005 2 gusting 5 30.6
2014-Dec-20 05:03 010 2 gusting 5 31.7
2014-Dec-20 04:43 118 1 gusting 4 29.4
2014-Dec-20 04:33 055 2 gusting 5 30.6
2014-Dec-20 04:13 092 1 gusting 5 31.1
2014-Dec-20 04:03 005 2 gusting 5 30.6
2014-Dec-20 03:43 262 1 gusting 5 31.1
2014-Dec-20 03:33 228 0 gusting 5 30.6
2014-Dec-20 03:13 161 1 gusting 5 30.6
2014-Dec-20 03:03 325 2 gusting 5 30.0
2014-Dec-20 02:43 316 1 gusting 4 28.9
2014-Dec-20 02:33 274 1 gusting 5 28.9
2014-Dec-20 02:13 356 1 gusting 5 28.3
2014-Dec-20 02:03 331 2 gusting 5 27.8